Simultaneous Nadir Overpasses (SNOs) Predictions

Prediction of SNOs between GOES-15 and METOP-A Satellite Orbit:

Table of predicted SNOs for the next 14.0 days since TLE Epoch: 5/17/2014
Index Date Time (GOES-15) GOES-15 Lat,Lon METOP-A Lat,Lon Distance(km) Time Diff (sec)
1 05/18/2014 06:42:50 0.06,-134.80 -0.68,-138.01 366.14 80
2 05/19/2014 06:19:32 0.07,-134.76 0.48,-133.02 198.21 80
3 05/20/2014 18:38:23 -0.07,-134.70 0.59,-137.57 327.73 80
4 05/21/2014 18:20:25 -0.07,-134.65 -0.57,-132.58 236.67 80
5 05/23/2014 06:39:24 0.07,-134.57 -0.51,-137.16 295.21 80
6 05/24/2014 06:16:04 0.08,-134.52 0.59,-132.16 268.78 80
7 05/25/2014 18:34:57 -0.07,-134.46 0.41,-136.72 257.85 80
8 05/26/2014 18:16:57 -0.08,-134.41 -0.70,-131.73 306.06 80
9 05/28/2014 06:35:57 0.08,-134.32 -0.38,-136.30 226.48 80
10 05/29/2014 06:12:37 0.08,-134.26 0.73,-131.31 336.84 80
11 05/30/2014 18:31:28 -0.08,-134.19 0.31,-135.86 190.90 80




NCC Satellite Simultaneous Nadir Overpasses (SNOs) Prediction Service
